Find Starlink 32784

NORAD ID: 62607 Int'l Des: 2025-008 Owner: SPXS Country: US Constellation: starlink operational
LEOCIRCULAR

Live Position

Loading 3D Globe...

About Starlink 32784

Description loading...

Upcoming Passes

Passes for default location (London). Set your location on the main map for personalized predictions.

Altitude History

Loading altitude history...

Two-Line Element Set

1 62607U 25008W 26123.60226449 .00108992 00000-0 25335-2 0 9992
2 62607 42.9958 322.4907 0016763 278.7666 81.1292 15.41101870 74082
Epoch: May 3, 2026 • Age: 23 hours

Current Status

Altitude 445.1 km
Velocity 7.65 km/s
Sub-Earth Point 21.73°N, 89.36°W
Launch Date Jan 13, 2025
Age 1.3 years
Type internet

Technical Details

Classification Payload
Mass 730.00 kg
Dry Mass 700.00 kg
Total Mass 730.00 kg
Length 0.30 m
Diameter 4.10 m
Span 29.00 m
Shape Box + pan
Manufacturer SPXS
Bus Type Starlink V2M
Phase Status In Orbit
Owner/State SPXS/US

Most Searched